Temperature
20 19 19 19 19 19 19 19 18 18 18 17 17 17 17 17 17 17 17 17 17 17 17 17 17 17 16 16 16 16 16 16 16 16 16 16 16 16 16 16 16 16 16
19 19 19 19 19 19 19 18 18 18 17 17 17 17 17 17 17 17 17 17 17 17 17 17 17 17 16 16 16 16 16 16 16 16 16 16 16 16 16 16 16 16 16
20 19 19 19 19 19 19 18 18 18 17 17 17 17 17 17 17 17 17 17 17 17 17 17 17 16 16 16 16 16 16 16 16 16 16 16 16 16 16 16 16 16 16
20 20 19 19 19 19 19 18 18 18 17 17 17 17 17 17 17 17 17 17 17 16 16 16 16 16 16 16 16 16 16 16 16 16 16 16 16 16 16 16 16 16 16
20 20 19 19 19 19 18 18 17 17 17 17 17 17 17 17 17 17 17 17 17 16 16 16 16 16 16 16 16 16 16 16 16 16 16 16 16 16 16 16 16 16 16
20 19 19 19 18 18 18 18 17 17 17 17 17 17 17 17 17 17 17 17 17 16 16 16 16 16 16 16 16 16 16 16 16 16 16 16 16 16 16 16 17 16 16
19 19 19 19 18 18 18 18 17 17 17 17 17 17 17 17 17 17 17 17 17 17 17 16 16 16 16 16 16 16 16 16 16 16 16 16 16 16 16 16 16 16 17
19 19 19 19 18 18 18 17 17 17 17 17 17 17 17 17 17 17 17 17 17 17 17 17 16 16 16 16 16 16 16 16 16 16 16 16 16 16 16 16 16 16 16
19 19 19 19 18 18 18 17 17 17 17 17 17 17 17 17 17 17 17 17 17 17 17 17 16 16 16 16 16 16 16 16 16 16 16 16 16 16 16 16 16 16 16
19 19 19 19 18 18 18 18 17 17 17 17 17 17 17 17 17 17 17 17 17 17 16 16 16 16 16 16 16 16 16 16 16 16 15 15 16 16 16 16 16 16 16
20 20 19 19 19 18 18 18 18 17 17 17 17 17 17 17 17 17 17 17 17 17 16 16 16 16 16 16 16 16 16 15 15 15 15 15 15 15 15 15 16 16 16
19 19 19 19 19 18 18 18 18 17 17 17 17 17 17 17 17 17 16 16 16 16 16 16 16 16 16 16 16 16 16 15 15 15 15 15 15 15 15 15 15 15 15
19 19 19 19 19 18 18 18 17 17 17 17 17 17 17 17 17 17 16 16 16 16 16 16 16 16 16 16 16 16 15 15 15 15 15 15 15 15 15 15 15 15 15
19 19 19 19 19 19 18 18 18 17 17 17 17 17 17 17 17 16 16 16 16 16 16 16 16 16 16 16 16 15 15 15 15 15 15 15 15 15 15 15 15 15 15
18 19 19 19 19 19 18 18 18 18 17 17 17 17 17 17 16 16 16 16 16 16 16 16 16 16 16 16 16 15 15 15 15 15 15 15 15 15 15 14 14 14 14
18 18 19 19 19 18 18 18 18 18 17 17 17 17 17 16 16 16 16 16 16 16 16 16 16 16 16 16 16 15 15 15 15 15 15 15 14 14 14 14 14 14 14
18 18 18 18 19 18 18 18 18 18 17 17 17 17 17 16 16 16 16 16 16 16 16 16 16 16 16 15 15 15 15 15 15 15 15 14 14 14 14 14 14 13 13
18 18 18 18 18 18 18 18 18 17 17 17 17 17 17 16 16 16 16 16 16 16 16 16 16 15 15 15 15 15 15 15 14 14 14 14 14 14 13 13 13 13 13
17 18 18 18 18 18 18 17 17 17 17 17 17 17 16 16 16 16 16 16 16 16 15 15 15 15 15 15 14 14 14 14 14 14 13 13 13 13 13 13 13 12 12
17 17 17 17 17 17 17 17 17 17 17 17 17 16 16 16 16 16 16 15 15 15 15 15 14 14 14 14 14 14 14 13 13 13 13 12 12 12 12 12 12 12 11
16 17 17 17 17 17 17 17 16 16 16 16 16 16 16 16 15 15 15 15 14 14 14 14 13 13 13 13 13 13 13 13 12 12 12 12 12 12 11 11 11 11 11
15 16 16 16 16 16 16 16 16 16 15 15 15 15 15 15 15 14 14 14 14 14 13 13 13 12 12 12 12 12 12 12 12 11 11 11 11 11 11 10 10 10 10
15 15 15 15 15 15 15 15 15 15 15 15 15 14 14 14 14 14 13 13 13 13 12 12 12 11 11 11 11 12 11 11 11 11 10 10 10 10 9 9 9 9 9
14 14 14 14 14 14 14 14 14 14 14 14 14 14 13 13 13 13 13 12 12 12 12 11 11 11 11 11 11 11 10 10 10 9 9 9 9 8 8 8 8 8 8
13 13 13 13 13 13 13 13 13 14 14 13 13 13 13 13 12 12 11 11 11 11 11 11 11 10 10 9 9 9 9 9 9 8 8 8 8 8 7 7 7 7 6
12 13 13 13 12 13 13 13 13 13 13 13 12 12 12 12 12 11 11 10 10 10 10 10 10 9 9 9 9 8 8 8 8 8 8 7 7 7 6 6 6 5 5
Wind_Speed
7 8 9 10 12 12 12 13 13 11 10 7 8 7 6 5 5 5 8 10 11 11 9 5 5 5 4 4 4 3 4 2 2 3 3 3 2 1 1 1 2 3 4
8 8 9 10 12 13 13 12 12 12 10 8 7 5 5 4 5 4 7 10 11 11 10 7 5 5 4 4 4 3 3 2 2 3 3 1 2 2 1 1 2 3 3
11 10 10 10 10 12 14 13 12 11 10 8 5 5 4 3 3 4 5 7 10 11 10 9 7 6 5 5 4 4 5 3 1 1 3 3 3 1 2 1 1 2 2
9 9 10 10 10 10 10 11 11 10 10 9 9 10 8 6 6 6 5 5 8 10 10 10 8 6 5 5 5 4 3 5 3 1 1 1 3 2 0 2 2 2 3
10 10 10 10 9 8 8 9 10 10 10 10 10 10 7 5 5 5 6 6 5 7 9 9 8 6 5 5 5 4 4 3 4 3 2 2 2 1 2 1 2 2 2
9 8 7 7 6 7 7 8 10 9 10 10 10 10 10 8 8 8 7 6 4 4 6 8 7 7 5 6 5 5 5 4 4 3 3 3 3 2 2 2 2 2 2
8 8 8 8 8 8 8 8 9 9 9 10 10 9 9 10 10 9 8 7 5 4 6 6 6 5 6 6 6 5 5 5 5 4 3 3 2 3 3 3 2 1 2
7 8 8 7 7 8 8 8 9 8 9 10 10 8 9 8 7 8 7 8 7 6 7 7 7 6 7 7 6 4 4 4 4 5 4 3 3 3 3 4 3 1 1
7 7 7 7 7 7 8 8 9 8 8 8 8 8 8 8 7 7 7 6 5 5 7 7 7 7 7 7 6 4 4 5 4 4 4 3 3 3 3 3 3 4 2
6 7 6 6 6 6 6 7 8 8 8 8 8 8 7 7 7 7 7 7 6 6 7 7 7 6 6 6 6 4 4 5 4 4 4 3 2 2 3 3 3 3 4
7 7 6 6 5 5 6 7 7 7 7 8 7 7 7 7 7 7 7 7 6 7 8 8 7 7 6 6 6 6 6 6 5 4 5 4 3 3 3 3 3 3 3
7 6 6 5 5 5 5 6 7 7 7 7 7 7 7 7 7 7 7 7 7 7 8 8 8 7 7 7 7 7 7 7 7 6 5 5 4 4 3 3 3 3 4
7 6 6 5 5 5 5 6 6 7 7 7 7 7 7 7 7 7 6 7 7 7 7 7 7 7 7 7 7 7 7 7 7 6 6 5 5 5 4 4 4 3 3
7 6 6 5 5 5 6 6 6 7 8 8 8 7 7 7 7 6 6 7 7 7 6 6 7 6 6 6 7 7 7 7 6 6 6 6 6 6 6 5 5 3 3
5 5 5 5 4 4 5 6 6 6 7 8 8 8 7 7 6 6 6 6 6 7 6 6 5 5 5 5 6 7 7 7 6 5 5 5 5 6 4 3 3 3 3
4 4 3 4 5 5 5 5 6 6 7 8 8 7 7 7 7 6 6 6 5 5 6 6 6 5 4 6 8 7 6 5 5 4 3 2 2 3 4 4 3 4 3
3 3 2 3 4 5 5 6 6 6 7 7 7 6 7 6 6 6 6 6 6 6 5 5 5 4 4 5 6 7 5 4 3 3 2 1 1 2 2 2 2 2 2
3 3 3 2 2 3 4 4 4 6 7 6 6 6 6 6 5 6 6 6 5 5 5 4 4 3 2 4 5 5 5 4 3 2 2 2 1 2 2 3 2 2 1
1 1 1 2 1 2 3 5 5 5 6 5 5 6 6 6 6 6 6 5 5 5 4 4 4 4 2 3 5 6 5 4 3 3 2 2 2 2 3 4 3 2 2
2 2 2 3 3 1 3 5 5 5 5 5 5 5 6 6 6 6 5 5 5 5 6 6 5 5 4 5 5 6 5 5 4 4 4 6 5 6 5 4 3 2 2
4 3 3 4 3 2 4 5 4 4 4 4 5 5 6 6 6 7 6 7 7 8 8 8 7 7 7 7 7 6 4 5 5 5 5 5 9 9 8 7 5 3 2
5 5 5 6 5 3 5 5 4 4 6 7 6 6 6 6 7 8 8 8 8 9 8 8 8 7 7 8 8 9 8 7 7 6 6 7 12 13 12 9 9 8 6
5 5 6 7 7 6 5 6 5 7 9 9 9 8 9 8 8 9 9 7 7 7 7 7 8 7 7 8 13 13 13 12 9 9 12 13 13 12 11 14 13 9 7
5 5 7 8 7 7 8 7 7 9 11 12 10 10 10 11 10 9 8 7 7 7 8 8 8 8 7 7 7 8 10 12 11 10 12 14 15 12 11 10 10 8 7
5 6 7 8 8 8 9 8 8 10 12 12 12 11 11 12 13 12 10 9 8 6 8 7 7 8 8 6 9 8 8 7 8 9 9 9 8 9 9 9 9 8 8
6 7 8 9 9 9 9 8 8 10 12 12 11 10 10 10 11 13 14 19 16 18 16 13 12 10 12 13 15 15 15 14 12 10 9 8 8 8 8 8 8 8 7
Wind_Direction
167 163 166 163 163 166 173 176 174 174 170 171 173 173 180 177 174 182 182 179 176 174 169 164 159 158 156 158 143 120 106 95 101 91 57 23 24 18 301 267 234 228 223
160 164 161 165 171 175 179 181 179 176 179 182 177 170 165 174 178 174 179 180 175 172 174 166 166 161 149 145 146 131 120 107 116 123 108 48 356 349 344 296 241 244 235
172 170 170 174 176 182 186 186 184 179 180 173 157 144 132 129 153 169 177 181 177 176 176 174 166 163 161 165 165 151 143 143 117 122 142 149 209 289 329 317 272 254 236
170 172 173 178 186 189 184 182 181 180 178 172 173 169 175 179 184 177 176 174 177 179 179 175 170 167 166 167 174 166 150 142 147 128 88 128 147 153 267 321 312 281 244
173 178 179 183 184 180 180 179 177 180 180 179 180 178 179 176 160 157 160 171 176 180 179 174 170 170 170 172 168 161 155 149 155 157 145 120 88 109 148 239 305 309 273
169 171 168 164 168 172 176 175 177 183 182 182 183 183 178 167 161 164 169 173 171 177 178 175 173 172 171 172 174 170 165 162 154 155 157 156 158 177 165 189 237 268 294
163 166 164 167 170 175 178 180 181 187 185 182 185 184 181 175 178 175 176 174 175 183 185 178 173 173 176 174 168 168 171 169 165 168 172 174 176 162 159 162 191 244 294
164 167 170 170 172 176 177 177 180 182 181 183 184 179 176 176 180 178 177 182 187 187 180 179 179 179 177 174 168 167 175 172 174 177 172 177 187 178 174 168 159 170 296
165 161 161 166 169 173 177 175 173 175 176 178 175 171 172 173 173 174 175 179 179 179 178 180 178 181 178 173 167 175 181 174 182 182 182 188 196 191 190 179 170 164 195
151 149 155 161 163 169 169 168 171 177 175 173 175 177 173 173 169 169 176 179 178 174 172 179 181 180 179 177 174 177 182 179 185 184 182 189 193 192 186 184 185 180 179
161 156 155 156 152 151 161 167 168 167 170 174 173 169 170 170 171 179 185 184 180 179 181 183 182 182 184 182 179 184 183 187 191 190 191 198 186 188 191 182 179 183 177
154 152 150 148 149 153 162 171 172 173 174 173 169 170 169 169 175 185 188 184 184 186 186 181 181 186 188 185 186 192 192 194 197 198 193 202 191 193 194 190 193 196 194
150 148 151 156 160 158 166 171 173 177 173 169 171 170 172 176 184 189 188 185 185 185 183 178 184 190 189 191 197 197 196 199 201 195 196 203 193 202 202 199 202 205 200
157 157 159 167 168 165 168 170 175 175 170 169 173 178 183 185 187 186 186 187 185 181 180 184 188 189 189 193 197 197 196 199 202 201 202 205 203 209 204 204 207 200 193
159 168 169 170 165 164 173 175 176 172 170 170 179 189 187 184 184 187 187 183 181 185 180 179 181 182 184 195 190 191 192 192 196 196 199 203 201 201 193 194 200 191 195
158 164 172 173 174 181 185 180 177 174 167 175 185 184 181 183 186 184 177 172 176 177 172 175 174 177 196 197 186 180 181 181 185 189 191 192 191 188 173 169 164 163 180
146 155 179 205 195 191 186 186 183 167 166 176 179 176 176 180 183 176 166 170 176 168 167 171 168 175 188 180 174 172 161 161 169 176 173 170 154 169 162 153 147 155 170
117 130 159 191 199 185 177 172 163 162 167 172 176 173 170 174 168 163 168 171 164 160 159 156 158 152 136 134 144 148 142 130 132 144 149 146 120 119 139 129 106 84 56
90 114 148 152 157 171 169 155 154 154 157 165 169 167 163 162 158 161 162 156 144 136 129 120 124 120 98 110 141 142 133 122 107 94 92 122 118 80 118 120 111 79 38
65 73 79 89 99 126 143 147 156 158 169 171 163 157 153 152 156 155 139 123 121 120 112 97 89 90 71 61 95 121 123 118 106 84 70 69 75 65 79 100 102 81 22
51 59 72 74 68 87 127 137 143 155 153 135 128 130 134 137 133 122 114 114 112 107 102 93 77 69 61 56 68 94 122 127 112 94 77 66 69 68 68 75 77 77 68
55 56 65 57 44 65 112 118 118 118 113 114 114 113 114 117 116 113 109 109 111 106 102 96 82 64 55 57 68 79 91 103 103 96 87 78 73 68 63 65 64 62 61
58 58 68 62 49 50 86 104 105 108 105 101 101 101 97 93 100 106 108 106 105 105 104 100 93 77 66 63 65 72 79 85 92 93 89 80 73 70 65 59 58 57 57
60 64 69 66 57 56 70 84 95 101 102 101 98 98 98 91 84 84 87 94 97 103 102 100 97 88 73 66 70 77 82 83 88 88 81 75 69 67 60 54 51 49 50
71 72 76 73 66 64 67 74 86 98 98 98 97 94 92 93 86 77 68 76 66 90 104 102 104 101 88 70 78 92 91 93 95 90 76 67 62 58 54 51 48 44 42
79 79 79 79 75 73 72 71 80 96 102 99 96 95 96 96 97 96 82 63 71 72 75 84 94 84 90 89 82 79 79 81 87 83 76 70 66 63 58 54 48 42 38
Height
1486 1489 1491 1494 1496 1499 1503 1506 1510 1514 1518 1522 1526 1530 1534 1539 1543 1546 1550 1553 1556 1558 1561 1563 1565 1566 1568 1570 1571 1573 1574 1575 1577 1578 1579 1580 1581 1581 1582 1583 1583 1584 1584
1484 1486 1489 1491 1493 1496 1500 1503 1507 1511 1515 1520 1524 1529 1533 1537 1541 1544 1548 1552 1555 1557 1559 1561 1564 1566 1567 1569 1570 1572 1573 1575 1576 1577 1578 1579 1581 1580 1581 1582 1582 1583 1584
1481 1484 1487 1489 1492 1495 1498 1501 1505 1509 1514 1518 1523 1527 1531 1535 1538 1542 1546 1550 1553 1556 1558 1560 1563 1564 1566 1568 1570 1571 1572 1574 1575 1577 1578 1579 1579 1580 1581 1581 1582 1582 1583
1479 1482 1485 1488 1490 1493 1496 1499 1503 1507 1512 1516 1520 1523 1527 1530 1534 1539 1543 1547 1551 1554 1557 1559 1561 1563 1565 1567 1568 1570 1571 1573 1574 1575 1577 1578 1578 1579 1580 1581 1581 1581 1582
1478 1481 1483 1486 1488 1491 1494 1497 1502 1505 1509 1513 1517 1521 1525 1529 1533 1538 1542 1546 1549 1552 1555 1558 1560 1562 1563 1565 1567 1568 1570 1571 1572 1574 1575 1577 1578 1578 1579 1579 1580 1581 1581
1478 1480 1483 1485 1488 1491 1493 1495 1499 1503 1507 1511 1515 1518 1523 1527 1531 1535 1539 1543 1547 1550 1553 1555 1558 1560 1562 1564 1565 1567 1568 1569 1571 1572 1574 1575 1576 1577 1578 1578 1579 1579 1580
1477 1480 1482 1484 1487 1489 1491 1494 1497 1501 1504 1508 1512 1516 1520 1524 1529 1533 1537 1541 1544 1547 1550 1553 1556 1558 1560 1562 1563 1565 1566 1568 1569 1571 1572 1574 1575 1576 1577 1577 1578 1578 1579
1476 1478 1481 1484 1486 1488 1490 1493 1496 1499 1503 1506 1509 1514 1519 1523 1527 1531 1535 1539 1542 1546 1549 1552 1554 1556 1558 1560 1561 1563 1564 1566 1567 1568 1570 1572 1573 1574 1575 1576 1576 1576 1577
1475 1478 1481 1483 1485 1488 1490 1492 1495 1498 1501 1504 1508 1512 1516 1521 1525 1529 1534 1537 1541 1544 1547 1549 1552 1554 1556 1557 1559 1560 1562 1563 1565 1566 1568 1569 1570 1572 1572 1573 1574 1575 1575
1475 1478 1481 1483 1485 1488 1490 1492 1495 1498 1501 1504 1507 1511 1514 1519 1524 1528 1531 1535 1538 1541 1544 1547 1549 1551 1553 1555 1556 1558 1559 1561 1562 1564 1565 1566 1568 1569 1570 1571 1572 1572 1573
1475 1478 1481 1483 1485 1487 1490 1492 1494 1497 1500 1503 1507 1510 1514 1518 1522 1526 1529 1532 1535 1538 1541 1544 1546 1548 1550 1552 1553 1555 1556 1558 1559 1560 1562 1563 1565 1566 1567 1568 1569 1569 1570
1475 1478 1480 1482 1484 1486 1489 1491 1493 1496 1499 1503 1506 1509 1513 1516 1520 1523 1526 1530 1532 1535 1538 1541 1543 1545 1547 1548 1550 1552 1553 1555 1556 1558 1559 1561 1562 1563 1564 1565 1565 1566 1566
1474 1477 1479 1481 1484 1486 1488 1490 1492 1495 1498 1502 1505 1508 1511 1514 1517 1520 1523 1527 1530 1532 1535 1537 1539 1541 1543 1545 1546 1548 1549 1551 1553 1555 1556 1558 1559 1560 1561 1561 1562 1562 1563
1473 1475 1478 1480 1482 1484 1486 1489 1491 1494 1497 1500 1503 1506 1509 1512 1515 1518 1521 1524 1527 1529 1532 1534 1536 1538 1540 1542 1543 1544 1546 1548 1550 1552 1553 1554 1555 1556 1557 1558 1558 1559 1559
1473 1475 1477 1479 1482 1484 1486 1488 1490 1493 1495 1498 1501 1504 1507 1510 1513 1516 1518 1521 1524 1527 1529 1532 1534 1536 1537 1538 1540 1541 1543 1544 1546 1548 1549 1551 1552 1553 1554 1554 1555 1555 1555
1472 1475 1477 1479 1481 1483 1485 1487 1489 1492 1494 1496 1499 1502 1505 1508 1510 1513 1516 1518 1521 1524 1527 1529 1531 1532 1534 1536 1537 1539 1540 1542 1543 1545 1546 1548 1548 1549 1550 1550 1551 1551 1551
1471 1474 1475 1478 1479 1482 1484 1486 1488 1490 1492 1495 1498 1500 1503 1505 1508 1511 1513 1516 1518 1521 1523 1526 1528 1530 1532 1534 1535 1537 1538 1539 1540 1542 1543 1544 1545 1546 1546 1547 1547 1547 1547
1471 1472 1475 1477 1478 1480 1482 1484 1486 1488 1491 1493 1496 1498 1500 1503 1506 1508 1510 1513 1516 1518 1520 1523 1525 1527 1529 1531 1533 1534 1535 1536 1537 1539 1540 1541 1542 1542 1543 1543 1543 1543 1543
1471 1472 1474 1475 1477 1479 1481 1483 1484 1486 1488 1491 1494 1496 1498 1501 1503 1505 1507 1510 1513 1515 1517 1520 1522 1524 1526 1528 1530 1531 1532 1533 1535 1536 1537 1538 1538 1539 1540 1540 1540 1540 1540
1472 1473 1474 1474 1475 1477 1479 1480 1482 1484 1486 1489 1492 1494 1496 1498 1501 1503 1505 1508 1510 1512 1515 1517 1519 1521 1524 1526 1527 1529 1530 1531 1532 1533 1535 1536 1536 1537 1537 1537 1537 1537 1537
1472 1473 1473 1474 1474 1475 1477 1478 1480 1482 1485 1488 1490 1493 1495 1497 1499 1502 1504 1506 1508 1511 1513 1515 1517 1519 1522 1524 1525 1527 1527 1529 1530 1532 1533 1533 1534 1535 1535 1535 1535 1534 1534
1472 1472 1472 1472 1473 1474 1475 1476 1478 1481 1484 1486 1489 1491 1494 1496 1498 1500 1503 1505 1508 1510 1512 1514 1516 1519 1521 1522 1524 1525 1526 1528 1529 1530 1531 1532 1532 1533 1533 1533 1532 1532 1532
1472 1473 1473 1473 1474 1475 1476 1477 1479 1481 1483 1486 1488 1491 1493 1495 1498 1500 1502 1505 1508 1509 1512 1514 1516 1519 1521 1522 1524 1525 1526 1527 1528 1528 1529 1530 1531 1531 1531 1531 1531 1530 1530
1473 1474 1474 1475 1475 1476 1477 1478 1480 1482 1483 1486 1488 1491 1494 1496 1498 1500 1503 1506 1509 1510 1512 1514 1516 1519 1521 1523 1524 1524 1525 1527 1528 1528 1528 1529 1530 1531 1531 1530 1530 1529 1529
1474 1476 1476 1477 1477 1478 1479 1480 1482 1484 1485 1488 1490 1493 1495 1497 1500 1502 1505 1508 1510 1513 1515 1517 1518 1520 1522 1524 1526 1526 1527 1528 1529 1529 1529 1530 1531 1531 1530 1530 1530 1529 1529
1477 1478 1479 1479 1480 1481 1482 1483 1485 1486 1487 1489 1492 1495 1498 1500 1502 1504 1508 1511 1514 1516 1519 1521 1522 1523 1525 1527 1528 1528 1529 1530 1531 1531 1530 1531 1531 1531 1531 1530 1530 1529 1528